Time,Conc(MG/M3),Flow(l/m),AT(C),BP(PA),RHx(%),RHi(%),WS(M/S),WD(Deg),BV(V),Alarm
17-NOV-2014 10:10:00,0.004,2.0,-14.4,89409,0,46,0.3,218,14.4,0
17-NOV-2014 10:20:00,0.003,2.0,-14.6,89429,0,50,0.3,217,14.4,0
17-NOV-2014 10:30:00,0.004,2.0,-14.7,89429,0,49,0.3,217,14.4,0
17-NOV-2014 10:40:00,0.004,2.0,-14.8,89429,0,50,0.3,217,14.4,0
17-NOV-2014 10:50:00,0.005,2.0,-14.8,89409,0,47,0.3,217,14.4,0
17-NOV-2014 11:00:00,0.004,2.0,-14.8,89409,0,50,0.3,217,14.4,0
17-NOV-2014 11:10:00,0.005,2.0,-14.7,89409,0,49,0.3,217,14.4,0
17-NOV-2014 11:20:00,0.004,2.0,-14.7,89409,0,48,0.3,217,14.4,0
17-NOV-2014 11:30:00,0.005,2.0,-14.6,89390,0,52,0.3,217,14.4,0
17-NOV-2014 11:40:00,0.006,2.0,-14.3,89390,0,49,0.3,217,14.4,0
17-NOV-2014 11:50:00,0.011,2.0,-13.5,89390,0,54,0.3,219,14.4,0
17-NOV-2014 12:00:00,0.010,2.0,-12.6,89390,0,51,0.3,218,14.4,0
17-NOV-2014 12:10:00,0.010,2.0,-12.4,89390,0,50,0.3,218,14.4,0
17-NOV-2014 12:20:00,0.009,2.0,-12.4,89390,0,47,0.3,218,14.4,0
17-NOV-2014 12:30:00,0.007,2.0,-12.7,89370,0,49,0.3,217,14.4,0
17-NOV-2014 12:40:00,0.006,2.0,-13.2,89370,0,50,0.3,217,14.4,0
17-NOV-2014 12:50:00,0.005,2.0,-13.5,89370,0,47,0.3,216,14.4,0
17-NOV-2014 13:00:00,0.005,2.0,-13.8,89390,0,51,0.3,216,14.4,0
17-NOV-2014 13:10:00,0.005,2.0,-14.0,89390,0,47,0.3,215,14.4,0
17-NOV-2014 13:20:00,0.005,2.0,-14.2,89390,0,51,0.3,215,14.4,0
17-NOV-2014 13:30:00,0.004,2.0,-14.2,89390,0,50,0.3,215,14.4,0
17-NOV-2014 13:40:00,0.004,2.0,-14.2,89390,0,49,0.3,215,14.4,0
17-NOV-2014 13:50:00,0.004,2.0,-14.2,89390,0,48,0.3,215,14.4,0
17-NOV-2014 14:00:00,0.007,2.0,-13.3,89390,0,57,0.3,216,14.4,0
17-NOV-2014 14:10:00,0.008,2.0,-11.9,89390,0,52,0.3,217,14.4,0
17-NOV-2014 14:20:00,0.007,2.0,-12.0,89390,0,47,0.3,216,14.4,0
17-NOV-2014 14:30:00,0.008,2.0,-12.3,89409,0,51,0.3,216,14.4,0
17-NOV-2014 14:40:00,0.010,2.0,-12.2,89409,0,50,0.3,216,14.4,0
17-NOV-2014 14:50:00,0.008,2.0,-12.0,89409,0,48,0.3,216,14.4,0
17-NOV-2014 15:00:00,0.010,2.0,-12.3,89429,0,50,0.3,216,14.4,0
17-NOV-2014 15:10:00,0.008,2.0,-12.6,89429,0,50,0.3,216,14.4,0
17-NOV-2014 15:20:00,0.007,2.0,-12.5,89429,0,49,0.3,215,14.4,0
17-NOV-2014 15:30:00,0.006,2.0,-12.5,89429,0,50,0.3,215,14.4,0
17-NOV-2014 15:40:00,0.007,2.0,-12.5,89429,0,48,0.3,215,14.4,0
17-NOV-2014 15:50:00,0.007,2.0,-12.0,89429,0,51,0.3,215,14.4,0
17-NOV-2014 16:00:00,0.007,2.0,-10.8,89429,0,51,0.3,215,14.4,0
17-NOV-2014 16:10:00,0.008,2.0,-9.5,89429,0,51,0.3,215,14.4,0
17-NOV-2014 16:20:00,0.008,2.0,-8.3,89429,0,47,0.3,216,14.4,0
17-NOV-2014 16:30:00,0.007,2.0,-7.8,89409,0,50,0.3,215,14.4,0
17-NOV-2014 16:40:00,0.008,2.0,-7.9,89409,0,48,0.3,218,14.4,0
17-NOV-2014 16:50:00,0.007,2.0,-8.0,89409,0,48,0.3,215,14.4,0
17-NOV-2014 17:00:00,0.007,2.0,-7.8,89409,0,51,0.3,214,14.4,0
17-NOV-2014 17:10:00,0.007,2.0,-7.4,89409,0,49,0.3,213,14.4,0
17-NOV-2014 17:20:00,0.009,2.0,-6.6,89390,0,48,0.3,216,14.4,0
17-NOV-2014 17:30:00,0.008,2.0,-5.2,89409,0,52,0.3,217,14.4,0
17-NOV-2014 17:40:00,0.006,2.0,-3.8,89409,0,50,0.3,215,14.4,0
17-NOV-2014 17:50:00,0.006,2.0,-3.0,89390,0,46,0.3,215,14.4,0
17-NOV-2014 18:00:00,0.006,2.0,-2.7,89390,0,48,0.3,213,14.4,0
17-NOV-2014 18:10:00,0.005,2.0,-2.3,89390,0,47,0.3,213,14.4,0
17-NOV-2014 18:20:00,0.006,2.0,-2.7,89390,0,49,0.3,212,14.4,0
17-NOV-2014 18:30:00,0.005,2.0,-2.8,89390,0,50,0.3,212,14.4,0
17-NOV-2014 18:40:00,0.005,2.0,-1.9,89370,0,47,0.3,215,14.4,0
17-NOV-2014 18:50:00,0.004,2.0,-1.1,89370,0,48,0.3,218,14.4,0
17-NOV-2014 19:00:00,0.005,2.0,0.4,89350,0,48,0.6,218,14.4,0
17-NOV-2014 19:10:00,0.007,2.0,2.3,89350,0,46,0.9,218,14.4,0
17-NOV-2014 19:20:00,0.008,2.0,3.1,89331,0,49,1.0,218,14.4,0
17-NOV-2014 19:30:00,0.009,2.0,3.4,89311,0,46,1.2,218,14.4,0
17-NOV-2014 19:40:00,0.011,2.0,3.7,89311,0,46,1.1,218,14.4,0
17-NOV-2014 19:50:00,0.011,2.0,4.2,89292,0,46,1.0,218,14.4,0
17-NOV-2014 20:00:00,0.011,2.0,4.9,89272,0,44,1.0,218,14.4,0
17-NOV-2014 20:10:00,0.011,2.0,5.2,89272,0,43,1.3,218,14.4,0
17-NOV-2014 20:20:00,0.010,2.0,5.1,89253,0,41,1.3,218,14.4,0
17-NOV-2014 20:30:00,0.007,2.0,6.3,89253,0,41,0.9,218,14.4,0
17-NOV-2014 20:40:00,0.006,2.0,6.7,89233,0,40,1.0,218,14.4,0
17-NOV-2014 20:50:00,0.006,2.0,6.8,89214,0,39,1.2,218,14.4,0
17-NOV-2014 21:00:00,0.006,2.0,6.2,89214,0,38,1.3,218,14.4,0
17-NOV-2014 21:10:00,0.006,2.0,6.0,89194,0,38,1.5,218,14.4,0
17-NOV-2014 21:20:00,0.008,2.0,6.9,89194,0,39,1.3,219,14.4,0
17-NOV-2014 21:30:00,0.011,2.0,7.2,89194,0,38,1.3,220,14.4,0
17-NOV-2014 21:40:00,0.010,2.0,7.4,89175,1,38,1.4,220,14.4,0
17-NOV-2014 21:50:00,0.010,2.0,6.8,89175,0,37,1.5,219,14.4,0
17-NOV-2014 22:00:00,0.010,2.0,7.1,89175,0,37,1.4,219,14.4,0
17-NOV-2014 22:10:00,0.009,2.0,6.8,89175,0,37,1.5,219,14.4,0
17-NOV-2014 22:20:00,0.009,2.0,6.9,89155,0,37,1.3,219,14.4,0
17-NOV-2014 22:30:00,0.009,2.0,6.5,89155,0,37,1.5,219,14.4,0
17-NOV-2014 22:40:00,0.008,2.0,7.1,89155,0,37,1.0,218,14.4,0
17-NOV-2014 22:50:00,0.007,2.0,6.9,89155,0,37,1.3,218,14.4,0
17-NOV-2014 23:00:00,0.007,2.0,6.4,89136,0,37,1.4,218,14.4,0
17-NOV-2014 23:10:00,0.007,2.0,6.5,89136,0,37,0.9,218,14.4,0
17-NOV-2014 23:20:00,0.007,2.0,6.7,89136,0,38,0.7,218,14.4,0
17-NOV-2014 23:30:00,0.008,2.0,6.4,89136,0,38,0.8,218,14.4,0
17-NOV-2014 23:40:00,0.008,2.0,5.9,89136,0,38,0.9,218,14.4,0
17-NOV-2014 23:50:00,0.009,2.0,4.7,89136,0,40,0.7,218,14.4,0
18-NOV-2014 00:00:00,0.010,2.0,3.4,89136,0,43,0.8,218,14.4,0
18-NOV-2014 00:10:00,0.011,2.0,2.4,89136,0,45,0.7,218,14.4,0
18-NOV-2014 00:20:00,0.011,2.0,1.7,89136,0,49,0.3,218,14.4,0
18-NOV-2014 00:30:00,0.010,2.0,0.9,89136,0,48,0.4,218,14.4,0
18-NOV-2014 00:40:00,0.010,2.0,-0.0,89155,0,50,0.5,218,14.4,0
18-NOV-2014 00:50:00,0.011,2.0,-0.7,89155,0,47,0.5,218,14.4,0
18-NOV-2014 01:00:00,0.010,2.0,-1.4,89155,0,50,0.9,218,14.4,0
18-NOV-2014 01:10:00,0.010,2.0,-1.9,89155,0,49,0.9,218,14.4,0
18-NOV-2014 01:20:00,0.011,2.0,-2.3,89155,0,47,0.3,218,14.4,0
18-NOV-2014 01:30:00,0.009,2.0,-2.7,89155,0,50,0.3,218,14.4,0
18-NOV-2014 01:40:00,0.010,2.0,-3.0,89155,0,49,0.3,218,14.4,0
18-NOV-2014 01:50:00,0.010,2.0,-3.3,89155,0,48,0.3,218,14.4,0
18-NOV-2014 02:00:00,0.011,2.0,-3.8,89175,0,50,0.3,218,14.4,0
18-NOV-2014 02:10:00,0.012,2.0,-4.2,89155,0,49,0.3,218,14.4,0
18-NOV-2014 02:20:00,0.012,2.0,-4.6,89155,0,47,0.3,218,14.4,0
18-NOV-2014 02:30:00,0.012,2.0,-5.0,89155,0,49,0.3,218,14.4,0
18-NOV-2014 02:40:00,0.013,2.0,-5.5,89155,0,49,0.3,218,14.4,0
18-NOV-2014 02:50:00,0.011,2.0,-6.0,89155,0,48,0.3,218,14.4,0
18-NOV-2014 03:00:00,0.011,2.0,-6.3,89155,0,50,0.3,218,14.4,0
18-NOV-2014 03:10:00,0.010,2.0,-6.5,89155,0,50,0.3,218,14.4,0
18-NOV-2014 03:20:00,0.010,2.0,-6.8,89136,0,47,0.3,218,14.4,0
18-NOV-2014 03:30:00,0.011,2.0,-7.3,89136,0,50,0.3,218,14.4,0
18-NOV-2014 03:40:00,0.012,2.0,-7.6,89116,0,48,0.3,218,14.4,0
18-NOV-2014 03:50:00,0.015,2.0,-7.8,89116,0,48,0.3,218,14.4,0
18-NOV-2014 04:00:00,0.015,2.0,-8.0,89136,0,51,0.3,218,14.4,0
18-NOV-2014 04:10:00,0.014,2.0,-8.1,89116,0,48,0.3,218,14.4,0
18-NOV-2014 04:20:00,0.011,2.0,-8.4,89096,0,48,0.3,218,14.4,0
18-NOV-2014 04:30:00,0.012,2.0,-8.7,89096,0,50,0.3,218,14.4,0
18-NOV-2014 04:40:00,0.013,2.0,-9.0,89077,0,48,0.3,218,14.4,0
18-NOV-2014 04:50:00,0.012,2.0,-9.2,89077,0,49,0.3,218,14.4,0
18-NOV-2014 05:00:00,0.011,2.0,-9.3,89077,0,50,0.3,218,14.4,0
18-NOV-2014 05:10:00,0.012,2.0,-9.5,89057,0,49,0.3,218,14.4,0
18-NOV-2014 05:20:00,0.012,2.0,-9.7,89057,0,47,0.3,218,14.4,0
18-NOV-2014 05:30:00,0.012,2.0,-10.0,89057,0,50,0.3,218,14.4,0
18-NOV-2014 05:40:00,0.012,2.0,-10.2,89038,0,49,0.3,218,14.4,0
18-NOV-2014 05:50:00,0.014,2.0,-10.2,89018,0,48,0.3,218,14.4,0
18-NOV-2014 06:00:00,0.014,2.0,-10.4,89018,0,50,0.3,218,14.4,0
18-NOV-2014 06:10:00,0.013,2.0,-10.5,88999,0,49,0.3,218,14.4,0
18-NOV-2014 06:20:00,0.014,2.0,-10.6,88999,0,48,0.3,218,14.4,0
18-NOV-2014 06:30:00,0.013,2.0,-10.6,88979,0,49,0.3,218,14.4,0
18-NOV-2014 06:40:00,0.014,2.0,-10.8,88979,0,50,0.3,218,14.4,0
18-NOV-2014 06:50:00,0.021,2.0,-10.8,88960,0,48,0.3,218,14.4,0
18-NOV-2014 07:00:00,0.021,2.0,-10.7,88960,0,50,0.3,218,14.4,0
18-NOV-2014 07:10:00,0.017,2.0,-10.9,88960,0,49,0.3,218,14.4,0
18-NOV-2014 07:20:00,0.012,2.0,-11.0,88960,0,48,0.3,218,14.4,0
18-NOV-2014 07:30:00,0.010,2.0,-11.0,88960,0,51,0.3,218,14.4,0
18-NOV-2014 07:40:00,0.010,2.0,-11.0,88960,0,49,0.3,218,14.4,0
18-NOV-2014 07:50:00,0.010,2.0,-11.0,88940,0,49,0.3,218,14.4,0
18-NOV-2014 08:00:00,0.010,2.0,-11.0,88940,0,51,0.3,218,14.4,0
18-NOV-2014 08:10:00,0.011,2.0,-11.0,88940,0,49,0.3,218,14.4,0
18-NOV-2014 08:20:00,0.010,2.0,-10.9,88921,0,47,0.3,218,14.4,0
18-NOV-2014 08:30:00,0.010,2.0,-11.0,88901,0,50,0.3,218,14.4,0
18-NOV-2014 08:40:00,0.010,2.0,-11.0,88901,0,51,0.3,218,14.4,0
18-NOV-2014 08:50:00,0.009,2.0,-10.9,88882,0,47,0.3,218,14.4,0
18-NOV-2014 09:00:00,0.009,2.0,-11.0,88882,0,50,0.3,218,14.4,0
18-NOV-2014 09:10:00,0.009,2.0,-11.0,88882,0,49,0.3,218,14.4,0
18-NOV-2014 09:20:00,0.009,2.0,-11.1,88862,0,47,0.3,218,14.4,0
18-NOV-2014 09:30:00,0.008,2.0,-11.3,88862,0,51,0.3,218,14.4,0
18-NOV-2014 09:40:00,0.008,2.0,-11.3,88862,0,48,0.3,218,14.4,0
18-NOV-2014 09:50:00,0.007,2.0,-11.2,88882,0,53,0.3,218,14.4,0
18-NOV-2014 10:00:00,0.007,2.0,-11.0,88882,0,50,0.3,218,14.4,0
18-NOV-2014 10:10:00,0.007,2.0,-11.0,88882,0,50,0.3,218,14.4,0
18-NOV-2014 10:20:00,0.006,2.0,-10.7,88862,0,48,0.3,218,14.4,0
18-NOV-2014 10:30:00,0.005,2.0,-10.5,88862,0,51,0.3,218,14.4,0
18-NOV-2014 10:40:00,0.006,2.0,-10.4,88842,0,50,0.3,218,14.4,0
18-NOV-2014 10:50:00,0.006,2.0,-10.1,88842,0,50,0.3,218,14.4,0
18-NOV-2014 11:00:00,0.005,2.0,-9.8,88823,0,53,0.3,218,14.4,0
18-NOV-2014 11:10:00,0.005,2.0,-9.2,88823,0,50,0.3,218,14.4,0
18-NOV-2014 11:20:00,0.005,2.0,-9.3,88803,0,52,0.3,218,14.4,0
18-NOV-2014 11:30:00,0.005,2.0,-8.8,88803,0,54,0.3,218,14.4,0
18-NOV-2014 11:40:00,0.005,2.0,-8.7,88803,0,50,0.3,218,14.4,0
18-NOV-2014 11:50:00,0.005,2.0,-8.6,88803,0,48,0.3,218,14.4,0
18-NOV-2014 12:00:00,0.004,2.0,-8.6,88803,0,52,0.3,218,14.4,0
18-NOV-2014 12:10:00,0.004,2.0,-8.4,88803,0,49,0.3,218,14.4,0
18-NOV-2014 12:20:00,0.005,2.0,-8.3,88784,0,48,0.3,218,14.4,0
18-NOV-2014 12:30:00,0.008,2.0,-8.3,88784,0,51,0.3,218,14.4,0
18-NOV-2014 12:40:00,0.005,2.0,-8.1,88784,0,51,0.3,218,14.4,0
18-NOV-2014 12:50:00,0.003,2.0,-7.5,88784,0,50,0.3,219,14.4,0
18-NOV-2014 13:00:00,0.003,2.0,-6.8,88784,0,51,0.3,225,14.4,0
18-NOV-2014 13:10:00,0.004,2.0,-6.3,88784,0,49,0.3,222,14.4,0
18-NOV-2014 13:20:00,0.007,2.0,-6.2,88784,0,49,0.3,219,14.4,0
18-NOV-2014 13:30:00,0.007,2.0,-6.0,88784,0,51,0.3,223,14.4,0
18-NOV-2014 13:40:00,0.008,2.0,-5.8,88784,0,50,0.3,224,14.4,0
18-NOV-2014 13:50:00,0.004,2.0,-5.6,88803,0,48,0.3,219,14.4,0
18-NOV-2014 14:00:00,0.006,2.0,-5.4,88784,0,51,0.3,231,14.4,0
18-NOV-2014 14:10:00,0.007,2.0,-5.1,88784,0,50,0.3,229,14.4,0
18-NOV-2014 14:20:00,0.009,2.0,-5.0,88784,0,48,0.3,226,14.4,0
18-NOV-2014 14:30:00,0.005,2.0,-5.1,88803,0,50,0.3,222,14.4,0
18-NOV-2014 14:40:00,0.008,2.0,-5.2,88784,0,50,0.3,225,14.4,0
18-NOV-2014 14:50:00,0.007,2.0,-5.2,88784,0,48,0.3,221,14.4,0
18-NOV-2014 15:00:00,0.005,2.0,-5.2,88803,0,50,0.3,225,14.4,0
18-NOV-2014 15:10:00,0.005,2.0,-5.2,88803,0,50,0.3,226,14.4,0
18-NOV-2014 15:20:00,0.003,2.0,-5.0,88803,0,48,0.3,226,14.4,0
18-NOV-2014 15:30:00,0.004,2.0,-4.9,88803,0,49,0.3,224,14.4,0
18-NOV-2014 15:40:00,0.004,2.0,-4.7,88784,0,50,0.3,226,14.4,0
18-NOV-2014 15:50:00,0.004,2.0,-4.3,88784,0,48,0.3,226,14.4,0
18-NOV-2014 16:00:00,0.004,2.0,-3.8,88784,0,49,0.3,227,14.4,0
18-NOV-2014 16:10:00,0.004,2.0,-3.3,88784,0,50,0.3,226,14.4,0
18-NOV-2014 16:20:00,0.004,2.0,-2.9,88803,0,48,0.3,227,14.4,0
18-NOV-2014 16:30:00,0.004,2.0,-2.3,88803,0,49,0.3,226,14.4,0
18-NOV-2014 16:40:00,0.005,2.0,-2.2,88784,0,49,0.3,230,14.4,0
18-NOV-2014 16:50:00,0.006,2.0,-2.1,88784,0,47,0.3,231,14.4,0
18-NOV-2014 17:00:00,0.005,2.0,-2.0,88784,0,50,0.3,230,14.4,0
18-NOV-2014 17:10:00,0.005,2.0,-1.6,88784,0,48,0.3,227,14.4,0
18-NOV-2014 17:20:00,0.005,2.0,-1.0,88764,0,47,0.3,225,14.4,0
18-NOV-2014 17:30:00,0.005,2.0,-0.1,88764,0,49,0.3,229,14.4,0
18-NOV-2014 17:40:00,0.005,2.0,0.9,88764,0,47,0.8,228,14.4,0
18-NOV-2014 17:50:00,0.005,2.0,1.7,88764,0,49,2.5,230,14.4,0
18-NOV-2014 18:00:00,0.005,2.0,2.4,88764,0,48,2.3,232,14.4,0
18-NOV-2014 18:10:00,0.006,2.0,2.4,88764,0,49,2.6,234,14.4,0
18-NOV-2014 18:20:00,0.004,2.0,1.8,88764,0,50,2.5,233,14.4,0
18-NOV-2014 18:30:00,0.004,2.0,1.9,88784,0,47,2.2,230,14.4,0
18-NOV-2014 18:40:00,0.004,2.0,2.5,88764,0,49,2.3,229,14.4,0
18-NOV-2014 18:50:00,0.005,2.0,3.0,88764,0,46,1.9,228,14.4,0
18-NOV-2014 19:00:00,0.005,2.0,4.2,88745,0,47,1.7,227,14.4,0
18-NOV-2014 19:10:00,0.005,2.0,5.6,88725,0,48,1.8,223,14.4,0
18-NOV-2014 19:20:00,0.004,2.0,6.9,88725,0,47,0.9,221,14.4,0
18-NOV-2014 19:30:00,0.005,2.0,8.0,88725,0,44,1.1,222,14.4,0
18-NOV-2014 19:40:00,0.005,2.0,8.6,88706,0,41,1.7,226,14.4,0
18-NOV-2014 19:50:00,0.005,2.0,9.2,88706,1,39,1.7,225,14.4,0
18-NOV-2014 20:00:00,0.005,2.0,9.3,88706,0,37,1.8,225,14.4,0
18-NOV-2014 20:10:00,0.005,2.0,9.2,88706,0,37,1.7,226,14.4,0
18-NOV-2014 20:20:00,0.006,2.0,9.0,88706,0,37,1.6,224,14.4,0
18-NOV-2014 20:30:00,0.006,2.0,9.0,88686,0,36,1.8,225,14.4,0
18-NOV-2014 20:40:00,0.006,2.0,8.8,88667,0,36,1.8,227,14.4,0
18-NOV-2014 20:50:00,0.006,2.0,9.0,88667,0,38,1.4,225,14.4,0
18-NOV-2014 21:00:00,0.006,2.0,9.1,88667,0,37,1.3,224,14.4,0
18-NOV-2014 21:10:00,0.006,2.0,9.3,88667,0,39,1.3,222,14.4,0
18-NOV-2014 21:20:00,0.005,2.0,9.2,88647,1,37,1.7,224,14.4,0
18-NOV-2014 21:30:00,0.005,2.0,9.4,88647,1,36,1.9,225,14.4,0
18-NOV-2014 21:40:00,0.004,2.0,10.1,88647,0,36,1.7,224,14.4,0
18-NOV-2014 21:50:00,0.004,2.0,10.6,88647,1,36,1.9,225,14.4,0
18-NOV-2014 22:00:00,0.004,2.0,11.1,88647,0,36,2.6,228,14.4,0
18-NOV-2014 22:10:00,0.005,2.0,11.5,88628,0,36,2.3,227,14.4,0
18-NOV-2014 22:20:00,0.005,2.0,11.6,88628,1,36,1.7,225,14.4,0
18-NOV-2014 22:30:00,0.004,2.0,11.2,88628,0,35,1.5,224,14.4,0
18-NOV-2014 22:40:00,0.004,2.0,10.7,88628,1,35,1.5,224,14.4,0
18-NOV-2014 22:50:00,0.005,2.0,10.7,88628,0,35,1.2,223,14.4,0
18-NOV-2014 23:00:00,0.005,2.0,10.9,88628,0,36,0.7,221,14.4,0
18-NOV-2014 23:10:00,0.005,2.0,10.8,88628,0,35,0.7,221,14.4,0
18-NOV-2014 23:20:00,0.006,2.0,10.1,88628,0,38,0.5,221,14.4,0
18-NOV-2014 23:30:00,0.006,2.0,9.0,88647,0,41,0.7,221,14.4,0
18-NOV-2014 23:40:00,0.005,2.0,8.0,88647,1,44,0.7,221,14.4,0
18-NOV-2014 23:50:00,0.005,2.0,7.1,88647,0,47,0.7,221,14.4,0
19-NOV-2014 00:00:00,0.005,2.0,6.5,88647,0,49,0.7,221,14.4,0
19-NOV-2014 00:10:00,0.005,2.0,6.0,88647,0,48,0.8,221,14.4,0
19-NOV-2014 00:20:00,0.005,2.0,5.4,88628,0,47,0.8,221,14.4,0
19-NOV-2014 00:30:00,0.006,2.0,4.9,88647,0,49,0.6,221,14.4,0
19-NOV-2014 00:40:00,0.006,2.0,4.6,88647,0,47,0.5,221,14.4,0
19-NOV-2014 00:50:00,0.006,2.0,4.1,88628,0,48,0.6,221,14.4,0
19-NOV-2014 01:00:00,0.008,2.0,3.9,88628,0,50,0.5,221,14.4,0
19-NOV-2014 01:10:00,0.007,2.0,3.6,88628,0,48,0.7,221,14.4,0
19-NOV-2014 01:20:00,0.005,2.0,3.2,88647,0,47,0.9,221,14.4,0
19-NOV-2014 01:30:00,0.006,2.0,2.8,88647,0,50,0.9,221,14.4,0
19-NOV-2014 01:40:00,0.006,2.0,2.5,88628,0,48,0.8,221,14.4,0
19-NOV-2014 01:50:00,0.005,2.0,2.4,88628,0,48,0.7,221,14.4,0
19-NOV-2014 02:00:00,0.005,2.0,2.1,88628,0,50,1.0,221,14.4,0
19-NOV-2014 02:10:00,0.006,2.0,1.9,88628,0,49,0.9,221,14.4,0
19-NOV-2014 02:20:00,0.005,2.0,1.8,88608,0,48,0.7,221,14.4,0
19-NOV-2014 02:30:00,0.005,2.0,1.6,88628,0,50,1.0,221,14.4,0
19-NOV-2014 02:40:00,0.006,2.0,1.5,88628,0,50,0.7,221,14.4,0
19-NOV-2014 02:50:00,0.006,2.0,1.5,88608,0,48,0.5,221,14.4,0
19-NOV-2014 03:00:00,0.005,2.0,1.5,88608,0,50,0.6,221,14.4,0
19-NOV-2014 03:10:00,0.006,2.0,1.3,88608,0,50,1.0,221,14.4,0
19-NOV-2014 03:20:00,0.005,2.0,1.3,88608,0,48,0.6,221,14.4,0
19-NOV-2014 03:30:00,0.006,2.0,1.3,88608,0,50,0.4,221,14.4,0
19-NOV-2014 03:40:00,0.007,2.0,1.1,88608,0,50,0.5,221,14.4,0
19-NOV-2014 03:50:00,0.006,2.0,0.9,88608,0,48,0.5,221,14.4,0
19-NOV-2014 04:00:00,0.006,2.0,0.6,88608,0,49,0.5,221,14.4,0
19-NOV-2014 04:10:00,0.007,2.0,0.4,88608,0,50,0.5,221,14.4,0
19-NOV-2014 04:20:00,0.007,2.0,0.1,88608,0,48,0.9,221,14.4,0
19-NOV-2014 04:30:00,0.006,2.0,-0.1,88608,0,50,0.9,221,14.4,0
19-NOV-2014 04:40:00,0.006,2.0,-0.3,88608,0,51,0.9,221,14.4,0
19-NOV-2014 04:50:00,0.006,2.0,-0.2,88608,0,48,0.9,221,14.4,0
19-NOV-2014 05:00:00,0.007,2.0,-0.2,88628,0,50,0.8,221,14.4,0
19-NOV-2014 05:10:00,0.007,2.0,-0.2,88628,0,51,0.8,221,14.4,0
19-NOV-2014 05:20:00,0.006,2.0,-0.2,88628,0,48,0.9,221,14.4,0
19-NOV-2014 05:30:00,0.006,2.0,-0.1,88628,0,50,0.6,221,14.4,0
19-NOV-2014 05:40:00,0.005,2.0,-0.1,88628,0,50,0.7,221,14.4,0
19-NOV-2014 05:50:00,0.005,2.0,-0.2,88628,0,48,0.6,221,14.4,0
19-NOV-2014 06:00:00,0.005,2.0,-0.3,88628,0,50,0.5,221,14.4,0
19-NOV-2014 06:10:00,0.006,2.0,-0.3,88628,0,50,0.6,221,14.4,0
19-NOV-2014 06:20:00,0.005,2.0,-0.2,88628,0,48,0.6,221,14.4,0
19-NOV-2014 06:30:00,0.005,2.0,-0.3,88628,0,49,0.7,221,14.4,0
19-NOV-2014 06:40:00,0.005,2.0,-0.3,88628,0,50,0.8,221,14.4,0
19-NOV-2014 06:50:00,0.006,2.0,-0.3,88628,0,48,0.5,221,14.4,0
19-NOV-2014 07:00:00,0.006,2.0,-0.1,88608,0,50,0.3,221,14.4,0
19-NOV-2014 07:10:00,0.006,2.0,-0.0,88608,0,50,0.3,221,14.4,0
19-NOV-2014 07:20:00,0.004,2.0,-0.0,88608,0,48,0.5,221,14.4,0
19-NOV-2014 07:30:00,0.004,2.0,-0.0,88608,0,49,0.4,221,14.4,0
19-NOV-2014 07:40:00,0.004,2.0,-0.0,88589,0,50,0.4,221,14.4,0
19-NOV-2014 07:50:00,0.004,2.0,-0.1,88589,0,48,0.5,221,14.4,0
19-NOV-2014 08:00:00,0.004,2.0,-0.3,88589,0,49,0.6,221,14.4,0
19-NOV-2014 08:10:00,0.004,2.0,-0.5,88589,0,50,0.6,221,14.4,0
19-NOV-2014 08:20:00,0.005,2.0,-0.9,88569,0,48,0.7,221,14.4,0
19-NOV-2014 08:30:00,0.004,2.0,-1.3,88569,0,50,0.9,221,14.4,0
19-NOV-2014 08:40:00,0.005,2.0,-1.5,88549,0,50,0.7,221,14.4,0
19-NOV-2014 08:50:00,0.005,2.0,-1.7,88549,0,48,0.7,221,14.4,0
19-NOV-2014 09:00:00,0.005,2.0,-1.9,88549,0,50,0.7,221,14.4,0
19-NOV-2014 09:10:00,0.005,2.0,-1.9,88530,0,51,0.5,221,14.4,0
19-NOV-2014 09:20:00,0.005,2.0,-1.9,88530,0,48,0.5,221,14.4,0
19-NOV-2014 09:30:00,0.005,2.0,-1.9,88530,0,50,0.4,221,14.4,0
19-NOV-2014 09:40:00,0.006,2.0,-2.0,88530,0,51,0.5,221,14.4,0
19-NOV-2014 09:50:00,0.005,2.0,-2.2,88510,0,48,0.7,221,14.4,0
19-NOV-2014 10:00:00,0.005,2.0,-2.2,88510,0,49,0.8,221,14.4,0
19-NOV-2014 10:10:00,0.005,2.0,-2.2,88510,0,51,0.7,221,14.4,0
19-NOV-2014 10:20:00,0.005,2.0,-2.2,88530,0,48,0.9,221,14.4,0
19-NOV-2014 10:30:00,0.004,2.0,-2.1,88530,0,50,0.9,221,14.4,0
19-NOV-2014 10:40:00,0.005,2.0,-2.1,88530,0,50,0.9,221,14.4,0
19-NOV-2014 10:50:00,0.006,2.0,-2.0,88510,0,48,0.8,221,14.4,0
19-NOV-2014 11:00:00,0.005,2.0,-2.1,88510,0,50,0.7,221,14.4,0
19-NOV-2014 11:10:00,0.006,2.0,-2.1,88491,0,50,0.5,221,14.4,0
19-NOV-2014 11:20:00,0.006,2.0,-2.0,88471,0,48,0.4,221,14.4,0
19-NOV-2014 11:30:00,0.006,2.0,-2.1,88471,0,49,0.5,221,14.4,0
19-NOV-2014 11:40:00,0.008,2.0,-2.0,88471,0,52,0.5,221,14.4,0
19-NOV-2014 11:50:00,0.006,2.0,-1.9,88471,0,47,0.6,221,14.4,0
19-NOV-2014 12:00:00,0.006,2.0,-2.0,88471,0,50,0.7,221,14.4,0
19-NOV-2014 12:10:00,0.006,2.0,-2.1,88471,0,49,0.9,221,14.4,0
19-NOV-2014 12:20:00,0.007,2.0,-2.2,88452,0,48,0.6,221,14.4,0
19-NOV-2014 12:30:00,0.006,2.0,-2.1,88452,0,50,0.7,221,14.4,0
19-NOV-2014 12:40:00,0.007,2.0,-2.0,88452,0,51,0.4,221,14.4,0
19-NOV-2014 12:50:00,0.008,2.0,-1.8,88452,0,48,0.4,221,14.4,0
19-NOV-2014 13:00:00,0.008,2.0,-1.7,88452,0,49,0.3,221,14.4,0
19-NOV-2014 13:10:00,0.008,2.0,-1.7,88452,0,50,0.4,221,14.4,0
19-NOV-2014 13:20:00,0.009,2.0,-1.7,88452,0,48,0.6,221,14.4,0
19-NOV-2014 13:30:00,0.007,2.0,-1.9,88452,0,49,0.7,221,14.4,0
19-NOV-2014 13:40:00,0.007,2.0,-1.9,88452,0,51,0.7,221,14.4,0
19-NOV-2014 13:50:00,0.008,2.0,-1.9,88452,0,48,0.8,221,14.4,0
19-NOV-2014 14:00:00,0.007,2.0,-2.0,88432,0,49,0.5,221,14.4,0
19-NOV-2014 14:10:00,0.008,2.0,-1.9,88432,0,50,0.5,221,14.4,0
19-NOV-2014 14:20:00,0.010,2.0,-1.9,88413,0,48,0.4,221,14.4,0
19-NOV-2014 14:30:00,0.010,2.0,-1.9,88413,0,50,0.3,221,14.4,0
19-NOV-2014 14:40:00,0.014,2.0,-1.8,88413,0,50,0.3,221,14.4,0
19-NOV-2014 14:50:00,0.010,2.0,-2.0,88413,0,48,0.4,221,14.4,0
19-NOV-2014 15:00:00,0.009,2.0,-2.2,88413,0,49,0.6,221,14.4,0
19-NOV-2014 15:10:00,0.009,2.0,-2.6,88413,0,50,0.9,221,14.4,0
19-NOV-2014 15:20:00,0.008,2.0,-2.8,88413,0,48,0.9,221,14.4,0
19-NOV-2014 15:30:00,0.008,2.0,-2.7,88413,0,50,0.7,221,14.4,0
19-NOV-2014 15:40:00,0.007,2.0,-2.5,88413,0,50,0.7,221,14.4,0
19-NOV-2014 15:50:00,0.008,2.0,-2.1,88393,0,49,0.6,221,14.4,0
19-NOV-2014 16:00:00,0.007,2.0,-1.6,88393,0,50,0.5,221,14.4,0
19-NOV-2014 16:10:00,0.008,2.0,-1.1,88393,0,50,0.5,221,14.4,0
19-NOV-2014 16:20:00,0.010,2.0,-0.7,88393,0,48,0.5,221,14.4,0
19-NOV-2014 16:30:00,0.014,2.0,-0.3,88393,0,49,0.5,221,14.4,0
19-NOV-2014 16:40:00,0.016,2.0,0.2,88393,0,50,0.4,221,14.4,0
19-NOV-2014 16:50:00,0.016,2.0,0.6,88393,0,48,0.4,221,14.4,0
19-NOV-2014 17:00:00,0.019,2.0,0.9,88393,0,48,0.6,221,14.4,0
19-NOV-2014 17:10:00,0.021,2.0,1.3,88374,0,49,0.6,221,14.4,0
19-NOV-2014 17:20:00,0.020,2.0,2.2,88374,0,49,0.3,221,14.4,0
19-NOV-2014 17:30:00,0.023,2.0,3.8,88354,0,47,0.5,221,14.4,0
19-NOV-2014 17:40:00,0.031,2.0,3.9,88335,0,46,1.0,221,14.4,0
19-NOV-2014 17:50:00,0.035,2.0,3.4,88315,0,48,1.2,221,14.4,0
19-NOV-2014 18:00:00,0.040,2.0,3.9,88315,0,48,1.3,221,14.4,0
19-NOV-2014 18:10:00,0.038,2.0,4.7,88295,0,44,1.4,220,14.4,0
19-NOV-2014 18:20:00,0.035,2.0,4.5,88295,0,45,1.3,220,14.4,0
19-NOV-2014 18:30:00,0.028,2.0,4.5,88295,0,46,1.4,220,14.4,0
19-NOV-2014 18:40:00,0.024,2.0,4.2,88276,0,47,1.1,220,14.4,0
19-NOV-2014 18:50:00,0.020,2.0,3.9,88256,0,47,1.5,220,14.4,0
19-NOV-2014 19:00:00,0.017,2.0,4.0,88237,0,47,1.5,220,14.4,0
19-NOV-2014 19:10:00,0.018,2.0,4.6,88237,0,48,1.4,220,14.4,0
19-NOV-2014 19:20:00,0.016,2.0,5.3,88217,0,47,1.3,220,14.4,0
19-NOV-2014 19:30:00,0.012,2.0,5.7,88198,0,46,1.5,220,14.4,0
19-NOV-2014 19:40:00,0.011,2.0,5.5,88159,0,45,1.3,220,14.4,0
19-NOV-2014 19:50:00,0.010,2.0,5.2,88139,0,45,1.2,220,14.4,0
19-NOV-2014 20:00:00,0.010,2.0,5.6,88139,0,44,1.3,220,14.4,0
19-NOV-2014 20:10:00,0.012,2.0,6.4,88139,0,44,1.4,220,14.4,0
19-NOV-2014 20:20:00,0.012,2.0,6.9,88100,0,42,1.3,219,14.4,0
19-NOV-2014 20:30:00,0.010,2.0,6.7,88100,0,41,1.4,220,14.4,0
19-NOV-2014 20:40:00,0.010,2.0,7.3,88081,0,40,1.4,219,14.4,0
19-NOV-2014 20:50:00,0.010,2.0,7.5,88061,1,39,1.3,219,14.4,0
19-NOV-2014 21:00:00,0.010,2.0,8.3,88042,0,38,1.4,219,14.4,0
19-NOV-2014 21:10:00,0.011,2.0,8.8,88022,0,37,1.6,220,14.4,0
19-NOV-2014 21:20:00,0.011,2.0,9.9,88002,0,36,1.5,220,14.4,0
19-NOV-2014 21:30:00,0.010,2.0,9.9,87983,1,34,1.8,220,14.4,0
19-NOV-2014 21:40:00,0.011,2.0,7.9,88002,0,34,1.5,219,14.4,0
19-NOV-2014 21:50:00,0.012,2.0,7.2,88002,0,35,0.8,219,14.4,0
19-NOV-2014 22:00:00,0.011,2.0,6.7,87983,0,37,1.2,219,14.4,0
19-NOV-2014 22:10:00,0.010,2.0,6.8,87963,0,39,1.4,219,14.4,0
19-NOV-2014 22:20:00,0.010,2.0,7.4,87963,0,40,1.3,220,14.4,0
19-NOV-2014 22:30:00,0.010,2.0,8.0,87963,0,39,1.3,220,14.4,0
19-NOV-2014 22:40:00,0.009,2.0,8.2,87963,0,39,1.5,219,14.4,0
19-NOV-2014 22:50:00,0.009,2.0,8.9,87963,0,38,1.2,219,14.4,0
19-NOV-2014 23:00:00,0.008,2.0,7.3,87963,0,38,1.2,219,14.4,0
19-NOV-2014 23:10:00,0.009,2.0,6.4,87963,0,40,1.2,219,14.4,0
19-NOV-2014 23:20:00,0.010,2.0,6.2,87983,1,42,1.0,219,14.4,0
19-NOV-2014 23:30:00,0.008,2.0,6.0,87983,0,42,1.1,219,14.4,0
19-NOV-2014 23:40:00,0.007,2.0,5.0,87983,0,43,0.8,219,14.4,0
19-NOV-2014 23:50:00,0.006,2.0,4.4,87983,0,45,1.0,219,14.4,0
20-NOV-2014 00:00:00,0.008,2.0,4.0,88002,0,47,0.8,219,14.4,0
20-NOV-2014 00:10:00,0.009,2.0,3.4,88022,0,49,1.1,219,14.4,0
20-NOV-2014 00:20:00,0.007,2.0,2.8,88002,0,46,1.0,219,14.4,0
20-NOV-2014 00:30:00,0.007,2.0,2.5,88022,0,48,0.9,219,14.4,0
20-NOV-2014 00:40:00,0.006,2.0,2.5,88002,0,49,0.4,219,14.4,0
20-NOV-2014 00:50:00,0.006,2.0,2.3,88002,0,46,0.6,219,14.4,0
20-NOV-2014 01:00:00,0.006,2.0,1.9,88022,0,49,0.9,219,14.4,0
20-NOV-2014 01:10:00,0.006,2.0,1.4,88022,0,45,0.8,219,14.4,0
20-NOV-2014 01:20:00,0.006,2.0,1.4,88022,0,49,0.5,219,14.4,0